Location: Amarillo Post Office Jordan Station
(35.1907°N, 101.9342°W)
Time: 13:34:32
(UTC+00:00)

OAO 3 Copernicus - Pass Details

Date: 24 January 2021
Orbit: 694 x 705 km, 35.0° (Epoch: 03 March)

Event Time Altitude Azimuth Distance (km) Brightness Sun altitude
Exits shadow 13:17:11 - 271° (W) 2,333 6.4 -7.5°
Reaches altitude 10° 13:17:41 10° 271° (W) 2,148 6.2 -7.4°
Maximum altitude 13:22:44 89° 178° (S) 700 4.4 -6.4°
Drops below altitude 10° 13:27:48 10° 93° (E) 2,155 8.4 -5.4°
Sets 13:30:12 0° 93° (E) 3,074 9.4 -5.0°
